Regional Weather Roundup
Issued by NWS Newport/Morehead, NC

Home | Current Version | Previous Version | Text Only | Print | Product List | Glossary On
Versions: 1 2 3 4 5 6 7 8 9 10 11 12 13 14 15 16 17 18 19 20 21 22 23 24 25 26 27 28 29 30 31 32 33 34 35 36 37 38 39 40 41 42 43 44 45 46 47 48 49 50
000
ASUS42 KMHX 291625
RWRMHX
WEATHER ROUNDUP FOR EASTERN NORTH CAROLINA
NATIONAL WEATHER SERVICE NEWPORT/MOREHEAD CITY NC
1200 PM EDT WED JUL 29 2015

NOTE: "FAIR" INDICATES FEW OR NO CLOUDS BELOW 12,000 FEET
WITH NO SIGNIFICANT WEATHER AND/OR OBSTRUCTIONS TO VISIBILITY

NCZ015>017-031-032-045>047-102-103-291700-
NORTH COAST

CITY           SKY/WX    TMP DP  RH WIND       PRES   REMARKS
EDENTON          N/A     85  71  62 SE7       30.03F
ELIZABETH CITY SUNNY     86  72  62 SE8       30.04S
KITTY HAWK     SUNNY     89  70  54 E9        30.04S
MANTEO         SUNNY     84  71  65 SE8       30.03F

$$

NCZ045>047-081-094-103-104-291700-
CENTRAL COAST

CITY           SKY/WX    TMP DP  RH WIND       PRES   REMARKS
FRISCO         PTSUNNY   88  70  55 SE13      30.02F
SWANQUARTER      N/A     88 N/A N/A S6G13     29.97F

$$

NCZ095-097-098-100-101-291700-
SOUTHERN COAST

CITY           SKY/WX    TMP DP  RH WIND       PRES   REMARKS
BEAUFORT       SUNNY     85  72  65 E12       30.01F
CEDAR ISLAND     N/A     86 N/A N/A NE7G14    30.06S
JACKSONVILLE   SUNNY     87  70  56 NE6       30.00F
PINEY ISLAND   MOSUNNY  N/A N/A N/A NE12      30.02F
WILMINGTON     SUNNY     86  71  60 NE9       30.01S


$$

NCZ011>013-027>030-043-044-078>080-089-090>093-098-291700-
COASTAL PLAIN

CITY           SKY/WX    TMP DP  RH WIND       PRES   REMARKS
AHOSKIE        SUNNY     83  69  62 CALM      30.04S
CLINTON        SUNNY     87  72  61 NE5       30.03S
ELIZABETHTOWN  SUNNY     88  69  54 CALM      30.01F
GOLDSBORO      MOSUNNY   86  71  61 VRB1      30.01S
GREENVILLE     PTSUNNY   88  72  58 S3        30.04F
HAVELOCK       MOSUNNY   88  72  58 NE13      30.02F
KENANSVILLE    SUNNY     85  68  57 CALM      30.03F
KINSTON        MOSUNNY   88  72  58 NE7       30.03F
NEW BERN       SUNNY     88  70  55 NE7       30.03F
RICHLANDS      SUNNY     88  68  51 E3        30.01F
ROCKY MOUNT    PTSUNNY   87  71  58 VRB3      30.04F
WASHINGTON     SUNNY     86  71  60 E5        30.03F
WHITEVILLE     MOSUNNY   87  69  55 NE3       30.00F

$$

AMZ130-135-150-152-154-156-158-170-250-252-270-ANZ085-086-088-633-658-670-291700-
MARINE OBSERVATIONS

STATION/POSITION TIME  TEMP    WIND        PRES    WAVE   SWELL
                       AIR SEA DIR/SP/G            HT/PER HT/PER
                 (UTC) (F)     (DEG/KT/KT) (MB)    (FT/S) (FT/S)
CHESAPEAKE LIGHT 1600   80     170/  7/  8 1017.9
64 E VA BEACH    1550   81 82  160/  4/  6 1017.3    2/ 6   2/ 6
DUCK             1600   81 66  130/  9/ 10 1016.4
2 E DUCK         1511      79                N/A     2/ 9
OREGON INLET     1600   82 83   80/  8/ 11 1017.1
13E OREGON INLT  1600      81                N/A     3/ 7
HATTERAS CG      1600   83 82   80/  7/ 12 1016.2
DIAMOND BUOY     NOT AVBL
CAPE LOOKOUT     1600   82      70/ 12/ 14 1015.9
BEAUFORT LAB     1600   83 81   70/  9/ 14 1015.6
30 SE NEW RVR IN NOT AVBL
27 SE WRIGHTSVLE 1600   79 82   60/ 12/ 14   N/A
5 SE WRIGHTSVLE  1508   82 82   80/ 12/ 16 1016.3
225 S CAPE HAT   1550   83 81  230/ 16/ 17 1014.7    5/ 7   2/10
41 SE CHARLESTON 1550   83 84   30/ 12/ 14 1014.9    3/ 7   2/ 7

$$



USA.gov is the U.S. government's official web portal to all federal, state and local government web resources and services.